Location: ??
(34.9170°N, 135.5016°E)
Time: 15:51:45
(UTC+00:00)

Explorer 7 - Visible Passes

Search period start: 26 February 2021 00:00
Search period end: 08 March 2021 00:00
Orbit: 484 x 677 km, 50.3° (Epoch: 25 February)

Date Brightness Start Highest point End Pass type
(mag) Time Alt. Az. Time Alt. Az. Time Alt. Az.
01 Mar 9.0 09:58:46 10° N 10:00:21 12° NNE 10:01:42 10° NE visible
02 Mar 8.7 10:02:49 10° NNW 10:05:14 15° NNE 10:06:14 14° NE visible
02 Mar 10.0 11:42:25 10° NW 11:42:32 11° NW 11:42:32 11° NW visible
03 Mar 8.3 10:06:59 10° NNW 10:10:04 20° NNE 10:10:48 19° NE visible
03 Mar 10.0 11:46:58 10° NW 11:47:07 11° NW 11:47:07 11° NW visible
04 Mar 7.7 10:11:14 10° NNW 10:14:49 29° NNE 10:15:28 28° NE visible
04 Mar 10.1 11:51:42 10° WNW 11:51:46 10° WNW 11:51:46 10° WNW visible
05 Mar 7.1 10:15:33 10° NW 10:19:29 46° NE 10:20:12 40° ENE visible
06 Mar 6.5 10:19:58 10° NW 10:24:03 80° NE 10:25:03 48° ESE visible
07 Mar 7.2 10:24:33 10° WNW 10:28:32 56° SW 10:30:02 33° SSE visible
